Probability
0 0 0 0 0 0 0 0 0 0 0 0 0 0 0 0 0 0 0 0 0 0 0 0 0 0 0 0 0 0 0 0 0 0 0 0 0 0
0 0 0 0 0 0 0 0 0 0 0 0 0 0 0 0 0 0 0 0 0 0 0 0 0 0 0 0 0 0 0 0 0 0 0 0 0 0
0 0 0 0 0 0 0 0 0 0 0 0 0 0 0 0 0 0 0 0 0 0 0 0 0 0 0 0 0 0 0 0 0 0 0 0 0 0
0 0 0 0 0 0 0 0 0 0 0 0 0 0 0 0 0 0 0 0 0 0 0 0 0 0 0 0 0 0 0 0 0 0 0 0 0 0
0 0 0 0 0 0 0 0 0 0 0 0 0 0 0 0 0 0 0 0 0 0 0 0 0 0 0 0 0 0 0 0 0 0 0 0 0 0
0 0 0 0 0 0 0 0 0 0 0 0 0 0 0 0 0 0 0 0 0 0 0 0 0 0 0 0 0 0 0 0 0 0 0 0 0 0
0 0 0 0 0 0 0 0 0 0 0 0 0 0 0 0 0 0 0 0 0 0 0 0 0 0 0 0 0 0 0 0 0 0 0 0 0 0
0 0 0 0 0 0 0 0 0 0 0 0 0 0 0 0 0 0 0 0 0 0 0 0 0 0 0 0 0 0 0 0 0 0 0 0 0 0
0 0 0 0 0 0 0 0 0 0 0 0 0 0 0 0 0 0 0 0 0 0 0 0 0 0 0 0 0 0 0 0 0 0 0 0 0 0
0 0 0 0 0 0 0 0 0 0 0 0 0 0 0 0 0 0 0 0 0 0 0 0 0 0 0 0 0 0 0 0 0 0 0 0 0 0
0 0 0 0 0 0 0 0 0 0 0 0 0 0 0 0 0 0 0 0 0 0 0 0 0 0 0 0 0 0 0 0 0 0 0 0 0 0
0 0 0 0 0 0 0 0 0 0 0 0 0 0 0 0 0 0 0 0 0 0 0 0 0 0 0 0 0 0 0 0 0 0 0 0 0 0
0 0 0 0 0 0 0 0 0 0 0 0 0 0 0 0 0 0 0 0 0 0 0 0 0 0 0 0 0 0 0 0 0 0 0 0 0 0
0 0 0 0 0 0 0 0 0 0 0 0 0 0 0 0 0 0 0 0 0 0 0 0 0 0 0 0 0 0 0 0 0 0 0 0 0 0
0 0 0 0 0 0 0 0 0 0 0 0 0 0 0 0 0 0 0 0 0 0 0 0 0 0 0 0 0 0 0 0 0 0 0 0 0 0
0 0 0 0 0 0 0 0 0 0 0 0 0 0 0 0 0 0 0 0 0 0 0 0 0 0 0 0 0 0 0 0 0 0 0 0 0 0
0 0 0 0 0 0 0 0 0 0 0 0 0 0 0 0 0 0 0 0 0 0 0 0 0 0 0 0 0 0 0 0 0 0 0 0 0 0
0 0 0 0 0 0 0 0 0 0 0 0 0 0 0 0 0 0 0 0 0 0 0 0 0 0 0 0 0 0 0 0 0 0 0 0 0 0
0 0 0 0 0 0 0 0 0 0 0 0 0 0 0 0 0 0 0 0 0 0 0 0 0 0 0 0 0 0 0 0 0 0 0 0 0 0
0 0 0 0 0 0 0 0 0 0 0 0 0 0 0 0 0 0 0 0 0 0 0 0 0 0 0 0 0 0 0 0 0 0 0 0 0 0
0 0 0 0 0 0 0 0 0 0 0 0 0 0 0 0 0 0 0 0 0 0 0 0 0 0 0 0 0 0 0 0 0 0 0 0 0 0
0 0 0 0 0 0 0 0 0 0 0 0 0 0 0 0 0 0 0 0 0 0 0 0 0 0 0 0 0 0 0 0 0 0 0 0 0 0
0 0 0 0 0 0 0 0 0 0 0 0 0 0 0 0 0 0 0 0 0 0 0 0 0 0 0 0 0 0 0 0 0 0 0 0 0 0
Wind_Speed
1 1 1 1 1 1 1 1 1 3 3 2 2 2 3 2 5 3 3 8 10 10 10 10 10 10 11 11 11 11 11 11 11 11 12 12 13 13
1 1 1 1 1 1 1 1 1 2 3 2 2 3 4 4 6 4 4 10 10 10 10 10 10 10 10 10 10 10 10 11 11 12 13 13 13 14
1 1 1 1 1 1 1 1 1 2 4 4 2 2 3 4 5 4 4 4 5 9 10 10 10 10 10 10 10 10 10 11 12 12 13 13 14 15
2 2 2 1 1 1 1 2 2 2 3 5 3 2 3 3 4 5 5 4 4 9 10 10 10 10 10 10 10 10 10 11 12 12 13 14 14 15
3 3 3 2 2 2 2 2 2 3 2 3 4 3 3 3 3 4 5 4 5 6 8 10 10 10 10 10 10 10 10 11 12 12 13 13 14 15
3 3 3 3 3 3 3 3 3 3 3 3 4 3 3 3 3 3 4 4 4 5 6 8 9 10 10 11 11 10 10 10 11 12 12 13 13 14
3 3 3 4 4 4 3 3 3 3 3 3 4 4 3 3 3 3 5 5 4 3 4 5 5 4 5 8 9 10 9 10 11 12 13 13 13 13
3 3 3 3 4 5 6 5 4 4 4 3 4 5 5 4 4 4 4 5 5 2 3 5 4 5 4 4 8 10 10 11 11 12 12 12 13 13
3 3 3 3 4 3 5 6 6 7 7 5 5 6 6 5 4 5 5 5 6 4 3 6 3 5 4 5 10 10 10 11 11 11 12 12 12 12
3 3 3 4 4 4 3 3 4 5 6 5 5 6 6 5 4 5 6 6 5 4 3 5 4 4 5 4 9 9 9 10 11 12 12 12 12 12
3 3 3 4 6 6 3 4 4 5 6 7 7 7 9 9 6 3 3 4 5 4 2 3 3 4 4 4 5 9 9 10 11 11 11 12 12 12
3 3 5 5 7 6 3 4 5 5 4 5 6 7 6 7 8 4 4 4 4 4 2 2 3 3 4 3 3 4 5 8 11 11 12 12 11 6
3 3 3 6 7 7 6 4 6 5 3 4 4 4 4 4 4 4 4 4 5 5 3 2 3 3 4 5 4 4 3 4 5 7 9 11 11 8
3 3 3 6 7 8 5 6 7 6 2 3 3 4 4 4 4 4 5 5 6 6 5 4 4 4 4 6 5 4 4 4 4 5 4 8 9 11
3 5 6 6 6 5 6 7 5 3 2 3 4 4 4 4 4 4 4 4 5 5 5 5 5 4 5 6 5 5 5 5 3 3 4 5 5 5
3 4 5 6 4 4 4 4 3 3 3 4 4 4 4 3 3 3 4 3 4 4 4 4 5 5 5 6 6 6 5 4 4 4 5 5 5 4
2 1 1 2 2 2 2 3 2 3 3 3 3 4 4 4 4 3 3 3 4 4 4 3 3 4 5 6 5 6 5 5 5 5 5 5 5 5
2 1 2 2 2 3 3 3 3 3 3 3 3 3 4 4 4 3 3 3 4 4 4 4 4 4 3 3 5 5 4 4 4 5 4 5 6 5
2 2 2 3 3 3 3 3 3 3 3 3 3 4 4 4 4 4 3 3 4 4 4 3 3 3 4 5 5 3 4 4 4 4 4 4 6 6
2 2 3 3 3 3 3 3 3 3 3 3 3 3 3 3 3 3 3 4 4 4 4 3 3 3 4 5 5 5 6 5 4 5 4 4 5 7
2 3 3 3 3 3 3 3 3 3 3 3 3 3 3 3 3 3 3 5 5 4 4 4 4 6 3 2 4 4 4 6 6 4 4 3 4 4
3 3 3 3 3 3 3 3 3 3 3 3 3 3 3 3 3 4 3 4 3 4 4 4 4 3 2 2 4 5 5 5 5 7 6 4 2 2
3 3 3 3 3 3 3 3 3 3 3 3 3 3 3 3 3 3 3 3 3 4 4 4 3 3 2 3 3 4 5 5 4 4 4 6 6 6
Wind_Direction
248 246 244 266 267 260 244 216 229 280 283 275 286 303 309 303 310 307 301 305 305 304 304 300 297 295 294 293 295 297 299 299 299 298 298 297 297 297
245 242 251 267 273 271 259 252 226 236 267 273 273 299 308 312 315 313 297 310 306 301 299 296 292 292 294 296 299 299 299 298 298 297 296 297 297 297
264 243 249 252 258 280 284 278 265 243 263 283 277 291 298 301 307 306 297 294 298 303 300 299 295 296 297 296 296 296 296 297 297 297 297 297 296 296
253 249 254 253 256 264 259 260 261 253 250 280 292 293 288 290 294 297 304 304 294 299 300 302 300 295 294 295 297 297 298 299 297 296 297 297 296 295
240 235 245 239 253 256 255 259 261 270 258 266 284 288 287 291 302 301 299 296 297 299 299 301 301 296 295 295 296 297 296 295 295 295 295 295 295 295
251 240 240 233 237 245 252 255 261 268 268 269 280 287 284 290 296 302 309 304 300 302 298 299 300 298 296 296 295 294 293 294 296 297 297 296 295 295
272 261 251 249 253 253 257 247 247 253 261 271 279 285 286 299 297 294 295 302 293 280 291 293 292 286 284 290 294 293 294 296 297 298 298 298 297 296
267 274 272 272 272 280 279 273 265 258 258 256 270 275 278 278 279 284 290 299 297 289 296 292 282 276 277 270 290 297 300 301 300 298 297 299 299 297
257 265 278 284 287 268 278 287 286 283 272 260 260 265 271 270 274 279 276 274 274 283 291 284 276 275 276 285 292 295 297 300 302 303 302 302 302 301
257 249 251 265 266 268 258 268 270 273 272 261 250 258 262 263 255 263 270 277 274 271 250 273 285 281 288 281 286 289 296 301 303 302 303 303 303 302
274 265 258 257 273 284 271 267 276 277 281 278 278 283 289 291 288 281 281 284 284 278 246 257 281 293 286 271 278 289 297 301 302 302 303 305 305 304
281 280 278 276 284 289 268 259 268 272 275 285 286 290 285 286 291 268 257 269 279 281 254 263 281 307 302 278 270 279 288 295 302 304 303 303 304 302
274 277 278 291 295 300 299 274 276 287 277 276 280 280 279 275 274 264 251 249 259 262 264 266 272 276 274 292 293 276 272 284 291 292 297 300 300 300
272 273 277 293 300 308 307 303 308 311 295 287 282 282 282 280 279 275 264 253 249 257 261 253 257 262 276 283 286 291 288 281 278 283 287 297 298 300
274 282 293 300 305 305 302 308 312 299 287 282 280 276 274 273 276 279 276 271 268 263 260 251 252 260 260 268 278 284 297 294 278 282 289 288 286 289
298 297 308 312 310 306 307 310 301 286 282 274 279 281 284 281 278 280 283 289 286 284 272 261 257 257 266 267 266 277 279 278 292 293 293 289 286 281
290 297 304 306 307 304 299 296 295 299 294 286 285 288 288 286 285 283 278 282 276 284 296 298 284 267 260 260 265 267 276 280 280 290 296 295 289 281
297 276 282 285 282 287 292 296 292 289 288 288 286 284 287 290 293 294 288 282 284 287 291 302 316 319 311 284 246 259 273 278 285 287 285 287 292 290
282 259 266 272 275 277 280 285 289 289 287 287 289 289 287 287 291 293 293 290 289 290 293 297 300 301 307 307 298 259 269 286 292 292 284 280 283 292
262 257 263 269 269 272 275 282 285 290 289 288 289 291 292 290 292 296 294 292 294 298 302 300 290 283 275 282 287 289 282 278 279 286 293 291 285 290
266 263 263 267 269 271 274 276 278 281 283 283 285 290 292 291 290 290 291 296 298 296 299 300 294 303 295 289 290 294 296 288 287 285 291 297 303 310
267 265 267 267 269 270 272 273 279 281 283 279 281 286 290 288 286 290 293 294 294 296 298 302 311 313 302 290 291 298 308 316 310 307 300 284 275 285
265 265 265 266 268 268 269 269 270 275 275 275 277 282 286 288 290 292 296 296 300 303 306 312 320 320 305 294 294 303 314 321 327 330 320 318 311 303